Time,TemperatureF,DewpointF,PressureIn,WindDirection,WindDirectionDegrees,WindSpeedMPH,WindSpeedGustMPH,Humidity,HourlyPrecipIn,Conditions,Clouds,dailyrainin,SoftwareType,DateUTC
2013-07-20 00:09:00,88.1,58.0,29.66,West,270,3.0,3.0,36,0.00,,,0.00,weatherlink.com 1.10,2013-07-20 07:09:00,
2013-07-20 00:24:00,88.9,61.0,29.66,WSW,249,2.0,7.0,39,0.00,,,0.00,weatherlink.com 1.10,2013-07-20 07:24:00,
2013-07-20 00:39:00,89.3,61.0,29.67,West,267,0.0,4.0,39,0.00,,,0.00,weatherlink.com 1.10,2013-07-20 07:39:00,
2013-07-20 00:54:00,88.5,58.0,29.67,WSW,245,1.0,2.0,36,0.00,,,0.00,weatherlink.com 1.10,2013-07-20 07:54:00,
2013-07-20 01:09:00,87.6,58.0,29.67,NE,46,0.0,1.0,37,0.00,,,0.00,weatherlink.com 1.10,2013-07-20 08:09:00,
2013-07-20 01:24:00,87.2,61.0,29.67,NNE,23,0.0,1.0,42,0.00,,,0.00,weatherlink.com 1.10,2013-07-20 08:24:00,
2013-07-20 01:39:00,87.2,73.0,29.68,WNW,299,3.0,7.0,63,0.00,,,0.00,weatherlink.com 1.10,2013-07-20 08:39:00,
2013-07-20 01:54:00,86.9,73.0,29.67,NW,311,1.0,5.0,64,0.00,,,0.00,weatherlink.com 1.10,2013-07-20 08:54:00,
2013-07-20 02:09:00,86.7,73.0,29.67,NW,307,1.0,2.0,64,0.00,,,0.00,weatherlink.com 1.10,2013-07-20 09:09:00,
2013-07-20 02:24:00,86.3,73.0,29.66,SW,236,0.0,1.0,65,0.00,,,0.00,weatherlink.com 1.10,2013-07-20 09:24:00,
2013-07-20 02:39:00,85.9,73.0,29.65,West,271,0.0,2.0,65,0.00,,,0.00,weatherlink.com 1.10,2013-07-20 09:39:00,
2013-07-20 02:54:00,86.1,73.0,29.64,NW,319,0.0,3.0,65,0.00,,,0.00,weatherlink.com 1.10,2013-07-20 09:54:00,
2013-07-20 03:09:00,85.7,73.0,29.63,SW,232,0.0,4.0,65,0.00,,,0.00,weatherlink.com 1.10,2013-07-20 10:09:00,
2013-07-20 03:24:00,85.7,73.0,29.62,West,280,0.0,2.0,65,0.00,,,0.00,weatherlink.com 1.10,2013-07-20 10:24:00,
2013-07-20 03:39:00,85.6,73.0,29.62,West,278,0.0,1.0,65,0.00,,,0.00,weatherlink.com 1.10,2013-07-20 10:39:00,
2013-07-20 03:54:00,85.8,72.0,29.61,NW,311,1.0,4.0,64,0.00,,,0.00,weatherlink.com 1.10,2013-07-20 10:54:00,
2013-07-20 04:09:00,85.5,72.0,29.62,NE,42,0.0,1.0,64,0.00,,,0.00,weatherlink.com 1.10,2013-07-20 11:09:00,
2013-07-20 04:24:00,85.2,72.0,29.62,North,358,2.0,3.0,65,0.00,,,0.00,weatherlink.com 1.10,2013-07-20 11:24:00,
2013-07-20 04:39:00,85.0,73.0,29.63,NW,319,4.0,7.0,67,0.00,,,0.00,weatherlink.com 1.10,2013-07-20 11:39:00,
2013-07-20 04:54:00,84.7,73.0,29.63,WNW,298,1.0,9.0,67,0.00,,,0.00,weatherlink.com 1.10,2013-07-20 11:54:00,
2013-07-20 05:09:00,84.5,72.0,29.65,WNW,302,1.0,5.0,67,0.00,,,0.00,weatherlink.com 1.10,2013-07-20 12:09:00,
2013-07-20 05:24:00,83.7,71.0,29.66,WNW,285,1.0,6.0,66,0.00,,,0.00,weatherlink.com 1.10,2013-07-20 12:24:00,
2013-07-20 05:39:00,-999.0,-99.9,29.67,North,-999,-999.0,-999.0,-999,0.00,,,0.00,weatherlink.com 1.10,2013-07-20 12:39:00,
2013-07-20 05:54:00,-999.0,-99.9,29.68,North,-999,-999.0,-999.0,-999,0.00,,,0.00,weatherlink.com 1.10,2013-07-20 12:54:00,
2013-07-20 06:10:00,-999.0,-99.9,29.69,North,-999,-999.0,-999.0,-999,0.00,,,0.00,weatherlink.com 1.10,2013-07-20 13:10:00,
2013-07-20 06:25:00,-999.0,-99.9,29.70,North,-999,-999.0,-999.0,-999,0.00,,,0.00,weatherlink.com 1.10,2013-07-20 13:25:00,
2013-07-20 06:40:00,-999.0,-99.9,29.71,North,-999,-999.0,-999.0,-999,0.00,,,0.00,weatherlink.com 1.10,2013-07-20 13:40:00,
2013-07-20 07:10:00,83.2,75.0,29.72,NNW,328,5.0,12.0,76,0.00,,,0.00,weatherlink.com 1.10,2013-07-20 14:10:00,
2013-07-20 07:25:00,83.4,75.0,29.72,SSW,195,5.0,9.0,75,0.00,,,0.00,weatherlink.com 1.10,2013-07-20 14:25:00,
2013-07-20 07:40:00,83.6,75.0,29.72,NW,304,6.0,11.0,75,0.00,,,0.00,weatherlink.com 1.10,2013-07-20 14:40:00,
2013-07-20 07:55:00,83.6,75.0,29.72,WNW,287,3.0,9.0,75,0.00,,,0.00,weatherlink.com 1.10,2013-07-20 14:55:00,
2013-07-20 08:10:00,83.7,75.0,29.72,NNW,343,2.0,9.0,75,0.00,,,0.00,weatherlink.com 1.10,2013-07-20 15:10:00,
2013-07-20 08:25:00,83.8,75.0,29.72,West,276,3.0,9.0,74,0.00,,,0.00,weatherlink.com 1.10,2013-07-20 15:25:00,
2013-07-20 08:41:00,83.9,74.0,29.72,WNW,302,3.0,6.0,73,0.00,,,0.00,weatherlink.com 1.10,2013-07-20 15:41:00,
2013-07-20 08:55:00,84.3,74.0,29.72,WNW,297,2.0,8.0,72,0.00,,,0.00,weatherlink.com 1.10,2013-07-20 15:55:00,
2013-07-20 09:10:00,85.7,75.0,29.72,WNW,293,6.0,7.0,70,0.00,,,0.00,weatherlink.com 1.10,2013-07-20 16:10:00,
2013-07-20 09:25:00,86.3,75.0,29.71,NW,314,3.0,6.0,69,0.00,,,0.00,weatherlink.com 1.10,2013-07-20 16:25:00,
2013-07-20 09:40:00,86.7,74.0,29.71,NNW,333,1.0,8.0,67,0.00,,,0.00,weatherlink.com 1.10,2013-07-20 16:40:00,
2013-07-20 09:55:00,87.9,75.0,29.71,NW,313,3.0,8.0,65,0.00,,,0.00,weatherlink.com 1.10,2013-07-20 16:55:00,
2013-07-20 10:10:00,87.6,74.0,29.71,WNW,298,1.0,5.0,65,0.00,,,0.00,weatherlink.com 1.10,2013-07-20 17:10:00,
2013-07-20 10:25:00,87.9,74.0,29.71,West,259,1.0,3.0,63,0.00,,,0.00,weatherlink.com 1.10,2013-07-20 17:25:00,
2013-07-20 10:40:00,88.3,74.0,29.71,NW,316,0.0,4.0,62,0.00,,,0.00,weatherlink.com 1.10,2013-07-20 17:40:00,
2013-07-20 10:55:00,88.5,73.0,29.70,WNW,299,3.0,4.0,61,0.00,,,0.00,weatherlink.com 1.10,2013-07-20 17:55:00,
2013-07-20 11:10:00,88.5,73.0,29.70,NE,37,0.0,3.0,60,0.00,,,0.00,weatherlink.com 1.10,2013-07-20 18:10:00,
2013-07-20 11:40:00,88.8,73.0,29.70,NW,311,0.0,1.0,60,0.00,,,0.00,weatherlink.com 1.10,2013-07-20 18:40:00,
2013-07-20 11:55:00,88.0,74.0,29.70,ENE,74,0.0,2.0,63,0.00,,,0.00,weatherlink.com 1.10,2013-07-20 18:55:00,
2013-07-20 12:10:00,87.6,74.0,29.70,East,90,0.0,1.0,64,0.00,,,0.00,weatherlink.com 1.10,2013-07-20 19:10:00,
2013-07-20 12:25:00,87.9,74.0,29.70,East,90,0.0,1.0,64,0.00,,,0.00,weatherlink.com 1.10,2013-07-20 19:25:00,
2013-07-20 12:40:00,88.4,75.0,29.69,East,94,0.0,3.0,64,0.00,,,0.00,weatherlink.com 1.10,2013-07-20 19:40:00,
2013-07-20 13:25:00,91.1,73.0,29.68,NE,45,2.0,2.0,56,0.00,,,0.00,weatherlink.com 1.10,2013-07-20 20:25:00,
2013-07-20 13:55:00,94.1,72.0,29.66,NNE,13,1.0,2.0,49,0.00,,,0.00,weatherlink.com 1.10,2013-07-20 20:55:00,
2013-07-20 14:10:00,95.1,72.0,29.65,WNW,299,1.0,3.0,48,0.00,,,0.00,weatherlink.com 1.10,2013-07-20 21:10:00,
2013-07-20 14:25:00,95.6,73.0,29.64,NW,319,2.0,2.0,48,0.00,,,0.00,weatherlink.com 1.10,2013-07-20 21:25:00,
2013-07-20 14:56:00,97.1,73.0,29.62,North,349,1.0,3.0,46,0.00,,,0.00,weatherlink.com 1.10,2013-07-20 21:56:00,
2013-07-20 15:11:00,96.3,73.0,29.61,North,4,1.0,5.0,47,0.00,,,0.00,weatherlink.com 1.10,2013-07-20 22:11:00,
2013-07-20 15:26:00,98.4,72.0,29.61,NE,40,1.0,3.0,43,0.00,,,0.00,weatherlink.com 1.10,2013-07-20 22:26:00,
2013-07-20 15:41:00,97.8,72.0,29.60,NNW,345,2.0,4.0,44,0.00,,,0.00,weatherlink.com 1.10,2013-07-20 22:41:00,
2013-07-20 15:56:00,98.6,73.0,29.59,West,276,0.0,4.0,44,0.00,,,0.00,weatherlink.com 1.10,2013-07-20 22:56:00,
2013-07-20 16:11:00,97.6,73.0,29.58,NNE,25,0.0,2.0,45,0.00,,,0.00,weatherlink.com 1.10,2013-07-20 23:11:00,
2013-07-20 16:26:00,97.5,73.0,29.58,East,81,1.0,3.0,45,0.00,,,0.00,weatherlink.com 1.10,2013-07-20 23:26:00,
2013-07-20 16:56:00,96.5,73.0,29.57,NE,50,2.0,4.0,46,0.00,,,0.00,weatherlink.com 1.10,2013-07-20 23:56:00,
2013-07-20 17:11:00,96.3,73.0,29.56,NW,321,2.0,4.0,47,0.00,,,0.00,weatherlink.com 1.10,2013-07-21 00:11:00,
2013-07-20 17:26:00,95.1,72.0,29.56,WNW,297,0.0,4.0,48,0.00,,,0.00,weatherlink.com 1.10,2013-07-21 00:26:00,
2013-07-20 17:56:00,97.1,72.0,29.55,SW,228,1.0,4.0,45,0.00,,,0.00,weatherlink.com 1.10,2013-07-21 00:56:00,
2013-07-20 18:11:00,96.0,73.0,29.55,ENE,74,3.0,4.0,47,0.00,,,0.00,weatherlink.com 1.10,2013-07-21 01:11:00,
2013-07-20 18:41:00,94.4,72.0,29.55,WNW,302,2.0,9.0,48,0.00,,,0.00,weatherlink.com 1.10,2013-07-21 01:41:00,
2013-07-20 18:56:00,93.8,71.0,29.55,WNW,302,3.0,6.0,48,0.00,,,0.00,weatherlink.com 1.10,2013-07-21 01:56:00,
2013-07-20 19:11:00,93.5,72.0,29.55,NE,54,1.0,6.0,49,0.00,,,0.00,weatherlink.com 1.10,2013-07-21 02:11:00,
2013-07-20 19:26:00,92.8,72.0,29.56,NW,307,3.0,6.0,50,0.00,,,0.00,weatherlink.com 1.10,2013-07-21 02:26:00,
2013-07-20 19:41:00,92.4,72.0,29.56,NW,322,1.0,5.0,51,0.00,,,0.00,weatherlink.com 1.10,2013-07-21 02:41:00,
2013-07-20 19:56:00,92.2,72.0,29.57,NNW,328,4.0,5.0,52,0.00,,,0.00,weatherlink.com 1.10,2013-07-21 02:56:00,
2013-07-20 20:41:00,91.0,71.0,29.57,NW,307,2.0,3.0,52,0.00,,,0.00,weatherlink.com 1.10,2013-07-21 03:41:00,
2013-07-20 20:56:00,90.9,71.0,29.57,West,273,0.0,3.0,52,0.00,,,0.00,weatherlink.com 1.10,2013-07-21 03:56:00,
2013-07-20 21:11:00,90.6,71.0,29.57,WNW,297,1.0,3.0,53,0.00,,,0.00,weatherlink.com 1.10,2013-07-21 04:11:00,
2013-07-20 21:26:00,90.9,71.0,29.58,NW,308,0.0,5.0,53,0.00,,,0.00,weatherlink.com 1.10,2013-07-21 04:26:00,
2013-07-20 21:41:00,90.5,71.0,29.59,NNW,342,0.0,2.0,52,0.00,,,0.00,weatherlink.com 1.10,2013-07-21 04:41:00,
2013-07-20 21:56:00,90.4,70.0,29.59,NW,308,0.0,4.0,52,0.00,,,0.00,weatherlink.com 1.10,2013-07-21 04:56:00,
2013-07-20 22:11:00,90.1,70.0,29.59,WNW,300,2.0,2.0,52,0.00,,,0.00,weatherlink.com 1.10,2013-07-21 05:11:00,
2013-07-20 22:26:00,90.0,71.0,29.59,ENE,72,1.0,2.0,54,0.00,,,0.00,weatherlink.com 1.10,2013-07-21 05:26:00,
2013-07-20 22:41:00,88.8,72.0,29.59,East,83,1.0,2.0,57,0.00,,,0.00,weatherlink.com 1.10,2013-07-21 05:41:00,
2013-07-20 22:56:00,88.6,69.0,29.59,NNW,346,0.0,4.0,52,0.00,,,0.00,weatherlink.com 1.10,2013-07-21 05:56:00,
2013-07-20 23:11:00,88.2,68.0,29.59,ENE,70,0.0,2.0,52,0.00,,,0.00,weatherlink.com 1.10,2013-07-21 06:11:00,
2013-07-20 23:26:00,87.7,68.0,29.60,WSW,257,0.0,3.0,52,0.00,,,0.00,weatherlink.com 1.10,2013-07-21 06:26:00,
2013-07-20 23:41:00,87.1,68.0,29.61,WSW,244,0.0,1.0,53,0.00,,,0.00,weatherlink.com 1.10,2013-07-21 06:41:00,
2013-07-20 23:56:00,87.0,68.0,29.60,ENE,73,0.0,1.0,54,0.00,,,0.00,weatherlink.com 1.10,2013-07-21 06:56:00,